When you browse on this site, cookies collect data to enhance your experience and personalize the content and advertising you see.
Visit our Privacy Policy to learn more. By continuing to use the site, you agree to this use of cookies and data.
  • In Germany
  • List of Countries
  • For 7 days
  • Water Temperature
  • Satellite Maps
  • Weather Map
  • Weather Widgets
  • user-avatar
    Login

    Hourly Weather Bad Königshofen im Grabfeld

    Today, 21 February, Thursday

    Time Temperature Precipitation Wind Pressure Humidity
    00:00 +5°C° 0 mm 1 mps 744 mmHg 87%
    01:00 +4°C° 0 mm 1 mps 744 mmHg 88%
    02:00 +4°C° 0 mm 1 mps 744 mmHg 89%
    03:00 +4°C° 0 mm 1 mps 744 mmHg 90%
    04:00 +3°C° 0 mm 1 mps 744 mmHg 91%
    05:00 +3°C° 0 mm 1 mps 744 mmHg 92%
    06:00 +3°C° 0 mm 1 mps 744 mmHg 93%
    07:00 +3°C° 0 mm 1 mps 744 mmHg 94%
    08:00 +4°C° 0 mm 1 mps 744 mmHg 91%
    09:00 +6°C° 0 mm 1 mps 744 mmHg 88%
    10:00 +7°C° 0 mm 1 mps 744 mmHg 85%
    11:00 +7°C° 0 mm 2 mps 744 mmHg 82%
    12:00 +8°C° 0 mm 3 mps 744 mmHg 78%
    13:00 +9°C° 0 mm 3 mps 744 mmHg 74%
    14:00 +9°C° 0 mm 3 mps 744 mmHg 75%
    15:00 +9°C° 0 mm 3 mps 744 mmHg 76%
    16:00 +9°C° 0 mm 2 mps 744 mmHg 77%
    17:00 +8°C° 0 mm 2 mps 744 mmHg 80%
    18:00 +7°C° 0 mm 2 mps 744 mmHg 84%
    19:00 +7°C° 0 mm 2 mps 744 mmHg 88%
    20:00 +7°C° 0 mm 2 mps 745 mmHg 89%
    21:00 +6°C° 0 mm 2 mps 745 mmHg 90%
    22:00 +6°C° 0 mm 2 mps 745 mmHg 91%
    23:00 +6°C° 0 mm 2 mps 745 mmHg 91%

    Tomorrow, 22 February, Friday

    Time Temperature Precipitation Wind Pressure Humidity
    00:00 +7°C° 0 mm 3 mps 746 mmHg 91%
    01:00 +7°C° 0 mm 3 mps 746 mmHg 91%
    02:00 +7°C° 0 mm 2 mps 746 mmHg 92%
    03:00 +7°C° 0 mm 2 mps 746 mmHg 93%
    04:00 +6°C° 0 mm 2 mps 746 mmHg 94%
    05:00 +6°C° 0 mm 2 mps 747 mmHg 94%
    06:00 +6°C° 0 mm 2 mps 747 mmHg 95%
    07:00 +6°C° 0 mm 2 mps 747 mmHg 95%
    08:00 +7°C° 0 mm 2 mps 748 mmHg 93%
    09:00 +7°C° 0 mm 2 mps 748 mmHg 90%
    10:00 +8°C° 0 mm 2 mps 749 mmHg 88%
    11:00 +9°C° 0 mm 2 mps 749 mmHg 83%
    12:00 +9°C° 0 mm 3 mps 750 mmHg 78%
    13:00 +10°C° 0 mm 3 mps 750 mmHg 72%
    14:00 +10°C° 0 mm 3 mps 751 mmHg 72%
    15:00 +9°C° 0 mm 3 mps 751 mmHg 72%
    16:00 +9°C° 0 mm 3 mps 751 mmHg 72%
    17:00 +8°C° 0 mm 3 mps 751 mmHg 77%
    18:00 +5°C° 0 mm 3 mps 751 mmHg 81%
    19:00 +5°C° 0 mm 2 mps 752 mmHg 86%
    20:00 +4°C° 0 mm 2 mps 752 mmHg 87%
    21:00 +3°C° 0 mm 2 mps 752 mmHg 88%
    22:00 +2°C° 0 mm 2 mps 753 mmHg 89%
    23:00 +2°C° 0 mm 2 mps 753 mmHg 89%

    Day after tomorrow, 23 February, Saturday

    Time Temperature Precipitation Wind Pressure Humidity
    00:00 +1°C° 0 mm 2 mps 753 mmHg 88%
    01:00 +1°C° 0 mm 2 mps 753 mmHg 87%
    02:00 +2°C° 0 mm 1 mps 753 mmHg 85%
    03:00 +1°C° 0 mm 1 mps 753 mmHg 83%
    04:00 +1°C° 0 mm 1 mps 753 mmHg 81%
    05:00 +1°C° 0 mm 1 mps 753 mmHg 78%
    06:00 +1°C° 0 mm 1 mps 753 mmHg 74%
    07:00 +1°C° 0 mm 1 mps 753 mmHg 71%
    08:00 +2°C° 0 mm 1 mps 753 mmHg 63%
    09:00 +4°C° 0 mm 1 mps 754 mmHg 55%
    10:00 +4°C° 0 mm 2 mps 754 mmHg 48%
    11:00 +5°C° 0 mm 2 mps 754 mmHg 43%
    12:00 +7°C° 0 mm 2 mps 754 mmHg 38%
    13:00 +8°C° 0 mm 3 mps 754 mmHg 34%
    14:00 +8°C° 0 mm 2 mps 753 mmHg 35%
    15:00 +8°C° 0 mm 2 mps 753 mmHg 37%
    16:00 +8°C° 0 mm 2 mps 753 mmHg 38%
    17:00 +7°C° 0 mm 2 mps 753 mmHg 43%
    18:00 +5°C° 0 mm 2 mps 753 mmHg 48%
    19:00 +3°C° 0 mm 2 mps 753 mmHg 53%
    20:00 +4°C° 0 mm 1 mps 753 mmHg 53%
    21:00 +3°C° 0 mm 1 mps 753 mmHg 54%
    22:00 +2°C° 0 mm 1 mps 753 mmHg 54%
    23:00 +2°C° 0 mm 1 mps 753 mmHg 53%

    24 February, Sunday

    Time Temperature Precipitation Wind Pressure Humidity
    00:00 +2°C° 0 mm 1 mps 753 mmHg 52%
    01:00 +2°C° 0 mm 1 mps 753 mmHg 50%
    02:00 +2°C° 0 mm 1 mps 753 mmHg 49%
    03:00 +2°C° 0 mm 1 mps 753 mmHg 47%
    04:00 +2°C° 0 mm 1 mps 752 mmHg 46%
    05:00 +2°C° 0 mm 1 mps 752 mmHg 45%
    06:00 +2°C° 0 mm 1 mps 752 mmHg 44%
    07:00 +2°C° 0 mm 1 mps 752 mmHg 42%
    08:00 +3°C° 0 mm 0 mps 753 mmHg 39%
    09:00 +4°C° 0 mm 0 mps 753 mmHg 35%
    10:00 +6°C° 0 mm 0 mps 753 mmHg 31%
    11:00 +8°C° 0 mm 1 mps 753 mmHg 32%
    12:00 +10°C° 0 mm 1 mps 753 mmHg 32%
    13:00 +11°C° 0 mm 1 mps 753 mmHg 33%
    14:00 +11°C° 0 mm 1 mps 753 mmHg 37%
    15:00 +12°C° 0 mm 1 mps 752 mmHg 41%
    16:00 +12°C° 0 mm 1 mps 752 mmHg 46%
    17:00 +10°C° 0 mm 1 mps 752 mmHg 51%
    18:00 +9°C° 0 mm 1 mps 752 mmHg 57%
    19:00 +7°C° 0 mm 1 mps 752 mmHg 62%
    20:00 +6°C° 0 mm 1 mps 753 mmHg 65%
    21:00 +6°C° 0 mm 1 mps 753 mmHg 67%
    22:00 +5°C° 0 mm 1 mps 753 mmHg 70%
    23:00 +5°C° 0 mm 1 mps 753 mmHg 71%

    25 February, Monday

    Time Temperature Precipitation Wind Pressure Humidity
    00:00 +5°C° 0 mm 1 mps 753 mmHg 71%
    01:00 +5°C° 0 mm 1 mps 753 mmHg 72%
    02:00 +5°C° 0 mm 1 mps 753 mmHg 73%
    03:00 +5°C° 0 mm 1 mps 753 mmHg 74%
    04:00 +5°C° 0 mm 1 mps 752 mmHg 75%
    05:00 +4°C° 0 mm 1 mps 752 mmHg 75%
    06:00 +4°C° 0 mm 1 mps 752 mmHg 75%
    07:00 +4°C° 0 mm 1 mps 752 mmHg 76%
    08:00 +6°C° 0 mm 1 mps 752 mmHg 71%
    09:00 +8°C° 0 mm 1 mps 753 mmHg 66%
    10:00 +10°C° 0 mm 1 mps 753 mmHg 61%
    11:00 +10°C° 0 mm 2 mps 753 mmHg 57%
    12:00 +13°C° 0 mm 2 mps 753 mmHg 54%
    13:00 +13°C° 0 mm 3 mps 752 mmHg 51%
    14:00 +13°C° 0 mm 3 mps 752 mmHg 51%
    15:00 +13°C° 0 mm 3 mps 752 mmHg 52%
    16:00 +13°C° 0 mm 3 mps 751 mmHg 53%
    17:00 +12°C° 0 mm 2 mps 751 mmHg 59%
    18:00 +9°C° 0 mm 2 mps 751 mmHg 66%
    19:00 +7°C° 0 mm 2 mps 751 mmHg 72%
    20:00 +6°C° 0 mm 2 mps 751 mmHg 74%
    21:00 +6°C° 0 mm 2 mps 751 mmHg 76%
    22:00 +5°C° 0 mm 2 mps 752 mmHg 77%
    23:00 +5°C° 0 mm 2 mps 751 mmHg 78%

    26 February, Tuesday

    Time Temperature Precipitation Wind Pressure Humidity
    00:00 +5°C° 0 mm 1 mps 751 mmHg 79%
    01:00 +5°C° 0 mm 1 mps 751 mmHg 80%
    02:00 +5°C° 0 mm 1 mps 751 mmHg 82%
    03:00 +5°C° 0 mm 1 mps 751 mmHg 83%
    04:00 +4°C° 0 mm 1 mps 750 mmHg 84%
    05:00 +4°C° 0 mm 1 mps 750 mmHg 85%
    06:00 +4°C° 0 mm 1 mps 750 mmHg 85%
    07:00 +4°C° 0 mm 1 mps 750 mmHg 86%
    08:00 +5°C° 0 mm 0 mps 750 mmHg 78%
    09:00 +6°C° 0 mm 0 mps 750 mmHg 71%
    10:00 +8°C° 0 mm 0 mps 750 mmHg 64%
    11:00 +10°C° 0 mm 0 mps 750 mmHg 59%
    12:00 +12°C° 0 mm 0 mps 750 mmHg 54%
    13:00 +13°C° 0 mm 0 mps 750 mmHg 49%
    14:00 +14°C° 0 mm 0 mps 749 mmHg 49%
    15:00 +14°C° 0 mm 0 mps 749 mmHg 49%
    16:00 +15°C° 0 mm 1 mps 749 mmHg 49%
    17:00 +13°C° 0 mm 1 mps 749 mmHg 55%
    18:00 +12°C° 0 mm 1 mps 749 mmHg 61%
    19:00 +10°C° 0 mm 1 mps 748 mmHg 67%
    20:00 +9°C° 0 mm 1 mps 748 mmHg 69%
    21:00 +9°C° 0 mm 1 mps 748 mmHg 70%
    22:00 +8°C° 0 mm 1 mps 748 mmHg 72%
    23:00 +8°C° 0 mm 1 mps 748 mmHg 72%
    Show more